Precipitable_Water
0.27 0.27 0.28 0.36 0.41 0.43 0.34 0.37 0.42 0.46 0.48 0.46 0.50 0.56 0.73 0.94 1.07 1.10 1.17 1.20 1.15 1.13 1.24 1.24 1.30 1.35 1.43 1.51 1.54 1.56 1.68 1.83 1.96 1.96 1.89 1.88 1.81 1.92 1.84 1.71 1.77 1.72 1.67 1.59
0.23 0.19 0.33 0.41 0.41 0.35 0.35 0.32 0.38 0.43 0.51 0.50 0.40 0.47 0.64 0.78 0.96 1.05 1.08 1.18 1.18 1.17 1.22 1.24 1.24 1.27 1.33 1.44 1.47 1.54 1.58 1.78 1.86 1.92 1.92 1.92 1.91 1.92 1.74 1.73 1.66 1.81 1.85 1.72
0.20 0.25 0.30 0.31 0.33 0.33 0.33 0.32 0.36 0.32 0.38 0.42 0.38 0.36 0.54 0.76 0.86 0.96 1.04 1.13 1.19 1.18 1.20 1.24 1.21 1.21 1.29 1.35 1.43 1.50 1.51 1.70 1.81 1.86 1.87 1.84 1.87 1.73 1.57 1.68 1.70 1.85 1.97 1.85
0.22 0.27 0.27 0.27 0.29 0.33 0.28 0.37 0.36 0.33 0.33 0.31 0.42 0.25 0.41 0.55 0.66 0.80 0.86 0.91 0.99 1.13 1.22 1.28 1.26 1.25 1.26 1.32 1.48 1.56 1.54 1.58 1.74 1.80 1.69 1.70 1.57 1.43 1.51 1.58 1.81 1.87 2.02 1.80
0.23 0.25 0.24 0.23 0.25 0.31 0.28 0.34 0.29 0.32 0.34 0.36 0.32 0.33 0.36 0.45 0.38 0.50 0.67 0.80 0.88 1.01 1.16 1.23 1.28 1.23 1.31 1.35 1.37 1.51 1.54 1.43 1.61 1.71 1.70 1.73 1.66 1.57 1.61 1.68 1.80 1.87 1.91 1.87
0.27 0.34 0.29 0.27 0.28 0.28 0.28 0.25 0.25 0.32 0.38 0.29 0.31 0.30 0.29 0.36 0.42 0.42 0.44 0.56 0.78 0.90 1.03 1.21 1.30 1.30 1.29 1.36 1.39 1.42 1.49 1.47 1.41 1.52 1.64 1.69 1.67 1.63 1.65 1.66 1.70 1.76 1.80 1.83
0.33 0.31 0.31 0.32 0.27 0.28 0.27 0.24 0.20 0.25 0.29 0.27 0.36 0.33 0.32 0.38 0.38 0.38 0.43 0.47 0.53 0.78 0.96 1.11 1.19 1.23 1.28 1.29 1.33 1.37 1.40 1.44 1.48 1.45 1.43 1.51 1.60 1.59 1.61 1.66 1.61 1.61 1.67 1.68
0.35 0.33 0.39 0.39 0.31 0.29 0.28 0.25 0.23 0.27 0.27 0.28 0.34 0.25 0.29 0.35 0.36 0.39 0.46 0.52 0.52 0.66 0.87 1.08 1.18 1.21 1.28 1.29 1.31 1.32 1.30 1.34 1.47 1.48 1.43 1.45 1.48 1.49 1.50 1.52 1.49 1.45 1.58 1.64
0.37 0.35 0.45 0.44 0.42 0.35 0.33 0.29 0.30 0.29 0.32 0.27 0.28 0.30 0.36 0.40 0.35 0.31 0.38 0.50 0.57 0.71 0.85 1.06 1.20 1.22 1.27 1.29 1.32 1.28 1.27 1.31 1.33 1.41 1.48 1.49 1.55 1.47 1.39 1.41 1.45 1.45 1.67 1.70
0.41 0.35 0.43 0.42 0.43 0.42 0.36 0.39 0.28 0.28 0.23 0.24 0.29 0.33 0.33 0.37 0.33 0.34 0.38 0.46 0.52 0.71 0.91 1.11 1.23 1.27 1.29 1.36 1.35 1.29 1.27 1.26 1.29 1.33 1.36 1.43 1.49 1.56 1.54 1.51 1.43 1.46 1.63 1.71
0.44 0.39 0.38 0.40 0.37 0.37 0.37 0.31 0.30 0.31 0.31 0.28 0.27 0.31 0.43 0.41 0.38 0.36 0.39 0.45 0.50 0.59 0.90 1.11 1.26 1.30 1.30 1.38 1.38 1.31 1.38 1.38 1.37 1.45 1.42 1.45 1.43 1.47 1.55 1.52 1.53 1.56 1.60 1.60
0.44 0.41 0.35 0.38 0.44 0.44 0.41 0.37 0.33 0.28 0.27 0.32 0.30 0.31 0.42 0.42 0.42 0.41 0.38 0.45 0.53 0.65 0.89 1.12 1.25 1.28 1.28 1.35 1.40 1.43 1.49 1.51 1.54 1.60 1.61 1.54 1.56 1.49 1.44 1.42 1.44 1.53 1.55 1.62
0.46 0.37 0.32 0.34 0.40 0.43 0.37 0.38 0.38 0.37 0.35 0.31 0.31 0.34 0.47 0.48 0.46 0.45 0.41 0.48 0.57 0.70 0.90 1.12 1.21 1.24 1.26 1.35 1.40 1.44 1.52 1.55 1.62 1.64 1.65 1.68 1.67 1.64 1.53 1.51 1.46 1.44 1.49 1.54
0.51 0.41 0.39 0.32 0.38 0.47 0.40 0.39 0.40 0.38 0.33 0.33 0.33 0.36 0.42 0.44 0.46 0.46 0.46 0.47 0.55 0.76 0.92 1.11 1.19 1.24 1.31 1.39 1.46 1.48 1.51 1.58 1.63 1.66 1.68 1.68 1.68 1.70 1.74 1.69 1.66 1.61 1.53 1.47
0.55 0.43 0.46 0.46 0.43 0.43 0.42 0.40 0.42 0.41 0.39 0.34 0.36 0.37 0.43 0.45 0.48 0.48 0.55 0.56 0.65 0.81 0.92 1.05 1.15 1.25 1.34 1.39 1.48 1.55 1.57 1.61 1.66 1.63 1.68 1.69 1.74 1.75 1.77 1.78 1.80 1.78 1.85 1.76
0.59 0.47 0.52 0.50 0.51 0.47 0.41 0.44 0.44 0.43 0.42 0.41 0.40 0.38 0.46 0.50 0.57 0.52 0.58 0.61 0.65 0.82 0.94 1.01 1.10 1.16 1.25 1.34 1.42 1.54 1.57 1.61 1.67 1.66 1.66 1.71 1.80 1.72 1.78 1.79 1.78 1.79 1.88 1.90
0.58 0.53 0.51 0.42 0.49 0.48 0.39 0.44 0.45 0.44 0.47 0.46 0.37 0.43 0.50 0.51 0.56 0.59 0.64 0.69 0.71 0.86 0.97 1.04 1.05 1.11 1.20 1.27 1.40 1.46 1.57 1.67 1.68 1.70 1.69 1.69 1.79 1.76 1.77 1.80 1.78 1.74 1.78 1.96
0.58 0.58 0.55 0.46 0.49 0.34 0.48 0.55 0.54 0.49 0.49 0.50 0.51 0.51 0.53 0.59 0.63 0.69 0.75 0.71 0.72 0.82 0.99 1.05 1.10 1.13 1.20 1.27 1.33 1.44 1.55 1.59 1.63 1.67 1.68 1.73 1.80 1.80 1.79 1.75 1.73 1.76 1.85 1.83
0.61 0.56 0.49 0.43 0.41 0.43 0.46 0.53 0.52 0.50 0.49 0.62 0.61 0.63 0.62 0.67 0.69 0.73 0.86 0.86 0.82 0.86 1.00 1.10 1.20 1.21 1.30 1.33 1.37 1.42 1.48 1.51 1.52 1.58 1.62 1.76 1.88 1.94 1.90 1.75 1.72 1.73 1.63 1.55
0.54 0.55 0.49 0.46 0.38 0.33 0.46 0.53 0.57 0.55 0.40 0.64 0.70 0.69 0.70 0.70 0.51 0.68 0.90 0.92 0.92 0.96 1.06 1.15 1.30 1.35 1.35 1.38 1.38 1.35 1.36 1.42 1.40 1.52 1.64 1.80 2.00 1.97 1.92 1.76 1.67 1.54 1.51 1.58
0.44 0.46 0.41 0.41 0.39 0.42 0.54 0.62 0.69 0.39 0.43 0.80 0.81 0.79 0.79 0.73 0.83 0.96 1.02 1.01 1.01 1.00 1.08 1.15 1.22 1.27 1.33 1.38 1.40 1.29 1.26 1.23 1.31 1.38 1.49 1.59 1.67 1.53 1.70 1.81 1.65 1.48 1.47 1.52
0.42 0.43 0.42 0.44 0.38 0.34 0.64 0.61 0.48 0.66 0.81 0.80 0.86 0.88 0.87 0.91 0.94 0.96 1.03 1.06 1.04 1.02 1.04 1.08 1.14 1.22 1.31 1.40 1.35 1.21 1.18 1.27 1.35 1.42 1.49 1.56 1.63 1.70 1.79 1.76 1.60 1.42 1.42 1.30
0.39 0.44 0.43 0.45 0.44 0.70 0.70 0.67 0.73 0.68 0.71 0.78 0.83 0.88 0.91 0.95 0.97 1.00 1.00 1.10 1.08 1.07 1.08 1.19 1.24 1.30 1.42 1.45 1.38 1.21 1.23 1.31 1.35 1.48 1.53 1.60 1.71 1.78 1.71 1.58 1.44 1.34 1.25 1.04
0.58 0.63 0.52 0.50 0.55 0.58 0.67 0.73 0.70 0.82 0.80 0.80 0.83 0.89 0.91 0.91 1.00 1.03 1.05 1.08 1.11 1.09 1.11 1.26 1.31 1.34 1.36 1.39 1.36 1.27 1.24 1.19 1.25 1.30 1.42 1.57 1.61 1.56 1.57 1.44 1.31 1.14 0.98 0.88
0.52 0.63 0.58 0.53 0.60 0.66 0.73 0.69 0.75 0.70 0.71 0.70 0.78 0.85 0.90 0.91 0.96 1.03 1.03 1.03 1.11 1.13 1.19 1.34 1.33 1.40 1.40 1.39 1.33 1.23 1.23 1.23 1.22 1.27 1.38 1.38 1.47 1.43 1.30 1.20 1.10 1.00 0.94 0.90
0.47 0.45 0.44 0.42 0.57 0.61 0.63 0.70 0.69 0.64 0.64 0.72 0.74 0.76 0.89 0.94 0.96 1.02 1.04 1.10 1.16 1.20 1.27 1.41 1.40 1.45 1.46 1.42 1.32 1.26 1.31 1.29 1.21 1.15 1.32 1.29 1.21 1.17 1.11 1.02 0.95 1.00 0.92 0.81
Wind_Speed
13 13 14 13 12 10 8 9 9 8 7 8 8 10 8 7 8 9 8 8 8 8 8 9 10 11 11 11 12 11 11 14 17 17 18 18 18 17 16 16 15 14 13 13
11 16 15 12 10 11 11 11 10 7 5 9 11 12 8 8 9 10 10 10 10 10 9 10 11 11 12 12 12 12 11 13 17 18 18 18 18 17 16 16 16 15 13 13
15 7 15 12 14 14 14 14 12 11 11 13 10 11 6 5 7 9 10 11 12 13 12 11 12 12 13 13 13 12 12 13 17 18 18 18 18 17 17 16 16 15 14 14
14 14 10 15 18 15 15 13 14 13 11 9 6 11 9 8 9 9 11 12 13 15 15 14 13 14 14 14 14 14 13 14 16 18 19 19 18 18 17 16 16 16 14 14
10 12 15 16 13 14 17 15 14 13 13 12 14 10 10 7 11 11 11 13 13 15 17 17 16 15 15 15 14 15 14 14 15 17 18 19 19 18 17 17 16 17 14 15
16 10 11 15 18 18 14 13 13 13 13 14 15 12 9 3 6 8 10 8 11 14 17 18 18 16 16 16 16 15 16 16 16 17 18 19 19 17 17 17 16 15 14 15
16 17 17 14 13 12 14 14 13 13 14 14 7 11 14 14 14 14 12 11 11 12 16 19 20 19 17 18 17 17 17 18 18 18 19 19 19 20 18 17 16 16 15 15
12 13 17 15 19 15 17 17 15 13 14 13 7 10 9 11 15 15 14 12 11 11 14 19 21 20 19 19 19 18 18 18 19 19 19 19 20 20 20 19 17 16 16 16
9 11 8 11 14 18 17 17 19 21 19 16 17 18 14 13 13 12 14 11 10 11 13 17 21 21 20 20 20 20 20 19 19 19 19 19 20 20 20 20 19 18 17 16
10 13 12 11 12 14 20 14 16 17 19 20 16 13 13 12 8 9 11 11 10 10 12 16 20 20 20 20 21 21 20 20 19 19 19 18 19 19 20 19 19 19 19 19
18 15 12 12 15 15 11 18 19 18 15 15 15 12 6 11 11 12 12 12 12 11 13 16 19 20 20 20 21 22 21 20 20 19 19 18 18 18 19 19 19 18 18 19
19 15 17 20 18 15 17 17 20 18 20 18 17 15 15 12 13 13 14 13 11 11 13 15 18 20 21 21 22 22 21 20 20 20 18 17 18 18 18 19 19 18 19 18
15 17 18 20 18 20 20 21 20 20 21 22 19 14 10 12 13 13 14 15 13 11 13 15 17 18 21 21 21 21 22 21 22 21 20 19 19 18 18 19 18 18 18 19
18 22 20 20 15 11 13 16 19 22 23 21 22 22 19 17 14 12 11 14 14 12 13 15 17 19 20 20 20 21 22 23 22 22 22 21 20 20 19 18 18 18 19 19
21 24 24 25 27 25 24 24 23 23 23 24 24 22 19 17 15 12 10 11 12 13 14 15 16 18 20 21 20 20 20 21 22 23 23 23 22 21 22 21 19 19 19 20
23 26 25 27 27 28 30 29 28 28 27 26 25 26 21 18 14 15 14 12 13 14 14 15 16 16 18 20 21 21 22 22 22 23 23 23 24 22 22 23 23 20 21 20
25 24 24 28 26 27 30 27 29 31 30 27 27 24 21 20 18 16 14 12 13 13 16 17 17 17 17 18 20 21 21 22 23 24 24 24 24 24 24 23 23 22 20 20
25 25 26 27 27 32 26 27 23 24 26 28 28 26 22 19 19 17 15 15 15 15 16 18 18 17 17 17 18 19 20 20 22 24 25 25 25 25 25 24 23 20 19 20
28 27 27 27 28 29 26 19 21 22 24 21 24 25 24 22 20 17 13 12 14 15 17 18 18 18 17 17 16 17 18 19 20 22 24 25 25 25 24 24 23 21 20 19
30 29 28 28 30 31 26 26 27 25 29 23 22 23 23 22 24 17 16 16 15 15 17 18 19 18 18 18 17 17 18 19 20 22 23 24 25 24 24 23 22 21 20 18
21 26 30 30 31 33 28 22 21 25 21 20 20 21 22 22 22 22 20 19 18 17 18 18 19 19 19 18 18 17 17 17 18 20 21 23 25 25 26 23 22 20 19 18
27 26 26 27 30 32 21 23 27 20 21 21 21 21 21 22 22 22 21 20 19 20 20 21 20 20 19 19 18 17 16 17 18 19 21 22 23 24 29 25 21 19 18 18
26 27 25 24 22 18 18 21 22 25 25 23 22 22 22 22 21 21 21 21 21 22 22 22 21 20 19 19 18 16 15 14 13 14 16 20 21 21 22 24 20 18 17 17
22 23 25 26 26 27 24 23 23 22 23 24 25 24 24 24 23 22 21 21 21 22 23 23 23 21 20 18 16 14 13 11 10 8 12 16 20 22 25 22 17 15 15 15
22 19 21 26 27 26 25 24 22 24 25 25 26 26 26 25 26 24 23 22 21 22 24 24 26 24 22 20 17 15 13 11 10 8 7 6 14 20 18 17 15 13 12 12
22 25 26 26 25 24 25 26 26 26 26 26 26 26 27 26 26 26 25 24 22 23 24 25 27 25 23 21 19 16 15 12 11 10 10 9 12 14 14 14 12 11 10 9
Wind_Direction
222 229 227 230 235 260 257 271 272 282 290 294 303 300 284 257 238 238 232 223 219 216 206 202 202 202 200 200 201 202 204 201 197 197 196 195 196 195 196 194 193 194 196 197
222 233 231 241 239 242 251 261 266 283 276 294 304 299 280 249 242 238 232 230 227 221 213 211 209 207 204 203 203 203 203 199 197 198 196 198 196 198 199 200 201 200 205 207
230 243 232 230 235 244 247 256 268 280 287 285 287 285 255 251 245 244 239 238 233 227 219 215 213 210 208 206 204 203 201 199 198 197 197 197 198 197 200 203 204 208 214 214
239 238 236 239 241 241 254 254 264 270 272 278 290 290 275 256 256 246 243 241 240 232 226 222 219 216 214 212 208 205 202 199 198 198 199 198 200 202 205 207 211 211 218 218
235 234 237 240 243 241 256 263 258 262 265 277 275 265 281 254 259 257 246 245 246 240 230 224 221 219 217 212 210 206 203 200 198 198 199 201 205 206 209 211 211 212 217 219
249 243 250 250 246 249 258 245 248 255 258 262 265 255 277 285 248 270 273 262 249 244 232 226 221 218 217 212 211 208 206 205 202 200 201 202 203 204 206 205 207 213 221 222
239 245 244 247 242 235 232 239 248 242 241 259 264 261 265 278 276 270 266 268 260 250 235 223 219 217 215 212 211 210 208 208 207 206 206 207 207 208 208 209 216 222 225 226
242 240 234 236 238 236 233 242 248 250 256 265 237 263 260 273 279 270 259 256 265 255 238 223 217 213 214 213 212 211 210 210 209 210 210 212 213 214 217 221 224 227 229 230
242 251 244 247 235 236 240 243 249 262 260 263 267 271 270 275 281 264 240 246 262 261 239 222 215 216 216 215 213 213 211 211 211 211 213 215 217 219 222 225 228 229 229 232
252 258 243 228 246 248 246 258 238 244 259 263 268 265 267 277 293 268 242 243 265 266 238 223 215 214 214 215 213 211 211 211 212 213 214 217 219 222 224 226 228 230 232 235
243 251 251 240 237 248 240 242 242 259 257 265 270 267 280 259 275 275 258 256 263 270 237 224 214 213 213 214 211 209 211 212 213 214 216 219 221 222 224 227 229 232 235 238
237 248 249 250 253 259 263 245 238 243 247 250 262 263 281 265 278 278 263 255 260 268 236 221 213 212 212 213 211 211 212 214 214 213 215 221 223 224 226 229 231 234 237 239
234 248 254 253 248 252 250 246 248 252 255 255 258 258 249 272 276 275 263 251 255 259 230 218 211 211 210 210 211 212 214 217 217 219 224 226 228 229 231 232 233 234 237 239
248 252 249 257 253 269 251 248 250 253 251 253 251 257 262 269 276 279 269 250 252 242 225 218 214 213 211 210 214 219 220 222 223 225 227 230 231 230 231 231 233 236 238 240
252 253 256 258 259 261 258 260 259 256 254 255 260 262 263 257 262 272 270 253 249 230 222 218 215 214 214 217 218 221 222 224 226 228 230 232 233 234 234 234 237 240 240 243
251 259 262 261 261 259 259 257 256 254 255 256 257 256 257 260 260 268 266 254 246 230 220 213 213 214 217 220 223 225 227 228 230 231 232 234 233 234 235 235 237 244 242 242
254 255 253 259 260 262 257 254 255 253 251 251 251 254 250 250 255 258 264 257 247 235 221 219 220 222 224 225 226 228 229 231 233 234 235 236 234 235 236 236 235 238 244 241
255 252 254 261 262 256 261 258 252 257 256 252 253 252 254 253 254 256 257 253 246 236 226 223 225 226 225 226 227 228 230 233 238 237 239 238 237 235 234 231 231 235 238 244
251 253 255 254 254 259 252 252 252 255 254 241 250 251 251 253 251 239 244 252 247 240 229 226 225 225 224 225 226 228 231 238 241 240 239 237 235 227 230 228 229 235 240 246
251 247 251 250 254 255 262 262 257 256 253 248 249 248 249 248 240 232 250 251 250 240 230 225 222 224 226 228 230 234 236 242 248 245 240 236 232 233 228 227 228 233 238 244
246 246 247 249 254 257 256 255 255 247 254 248 250 249 248 242 243 249 250 248 246 240 231 227 226 227 229 228 231 237 242 251 253 251 246 241 239 240 227 228 226 230 236 244
253 251 248 248 253 255 248 248 246 257 255 252 250 249 248 245 244 243 245 246 243 236 232 230 230 229 227 227 229 237 247 251 254 251 245 238 235 231 231 218 224 229 237 249
253 252 255 252 250 251 253 251 254 256 253 251 251 249 247 245 243 242 243 246 243 236 233 229 227 224 222 225 230 237 244 247 247 248 239 232 229 216 219 222 222 232 242 255
257 256 253 254 251 253 254 254 259 252 250 252 251 249 247 245 243 243 243 244 243 237 230 225 220 218 220 221 225 233 231 232 236 250 233 232 217 217 225 227 227 234 247 257
260 263 256 251 250 256 254 254 249 257 257 254 249 248 246 244 242 242 243 245 242 235 226 220 217 217 217 220 223 221 221 224 226 231 232 195 204 207 203 210 225 236 247 252
260 257 252 252 253 255 255 257 261 260 257 253 250 249 243 243 241 241 241 241 237 229 223 217 214 215 216 217 217 217 219 223 225 223 219 209 202 201 207 212 219 228 235 247